Theta_e
313 313 314 312 314 302 308 308 303 306 312 309 306 308 308 308 305 302 309 306 308 313 313 315 317 317 318 318 320 321 324 325 328 331 333 332 332 334 336 342 348 351 354 357 357 358 358 360 359 359 361 362 364 365 367 367 368 368 368 368 366 367 367
313 316 315 314 314 314 310 303 306 312 314 312 307 300 305 302 299 302 306 303 305 305 302 315 315 314 315 317 318 319 323 325 324 327 333 333 331 333 339 346 351 352 354 356 357 357 358 360 360 360 363 363 365 365 367 368 368 368 368 368 367 367 365
312 315 314 311 313 315 311 308 314 305 300 300 306 304 297 298 297 300 304 306 306 307 307 312 312 312 313 316 318 318 319 321 322 322 327 334 335 333 336 342 348 351 352 355 357 357 358 361 363 363 363 363 364 366 368 368 367 369 369 367 367 366 366
312 312 310 302 306 312 314 315 310 312 309 304 302 303 305 305 300 299 300 303 302 310 311 313 314 315 315 315 317 317 318 320 321 323 324 329 333 333 334 339 346 350 352 353 356 356 357 359 361 362 363 363 363 364 366 367 367 370 369 368 367 366 365
311 304 308 305 306 304 306 307 307 308 307 311 309 308 304 302 301 301 302 300 305 311 314 313 315 318 317 317 316 318 319 322 323 325 326 329 334 335 334 336 343 349 351 352 355 357 357 359 361 362 361 361 362 363 364 366 367 367 366 367 367 367 366
305 306 311 310 310 309 307 306 306 308 304 303 300 299 308 305 302 298 300 301 310 313 317 317 317 318 319 319 319 318 320 319 323 324 328 331 333 337 337 336 341 347 352 353 354 356 357 357 358 359 361 362 361 362 362 364 365 365 364 365 367 367 368
306 309 313 314 314 312 311 309 307 310 309 308 304 296 302 305 305 306 306 303 307 316 318 318 318 318 318 320 320 320 320 322 322 323 324 329 334 335 334 336 338 342 351 353 353 356 357 356 358 359 360 360 360 361 362 363 362 364 364 365 366 369 368
311 313 314 314 314 312 309 310 311 310 307 308 306 306 309 305 305 302 303 301 307 315 320 319 317 320 317 321 319 320 320 322 322 323 325 329 333 336 335 337 336 342 348 353 356 356 357 357 358 358 358 360 361 361 360 361 361 362 363 364 365 369 368
305 307 310 309 312 311 308 307 309 310 311 311 310 311 312 306 306 306 302 298 304 315 319 319 319 317 316 316 318 319 320 323 323 324 327 330 339 341 339 342 342 345 348 353 357 357 362 361 355 358 359 359 359 360 360 360 360 362 363 364 365 367 367
296 296 297 299 302 305 308 310 310 310 309 309 308 304 307 300 310 310 305 304 311 315 319 318 317 317 318 318 318 318 321 324 324 326 331 339 341 345 343 343 343 345 354 358 361 362 363 357 355 360 362 358 358 359 360 360 360 361 362 362 363 366 366
303 305 313 311 311 308 305 307 309 309 310 311 310 309 305 302 307 307 310 311 311 313 313 315 315 317 317 317 319 318 320 323 328 334 333 333 340 347 343 345 344 351 355 356 358 361 356 355 356 356 356 358 358 361 360 359 360 361 363 363 364 365 365
311 309 310 309 311 308 308 307 307 310 309 309 308 305 304 313 306 300 310 314 310 311 314 315 316 317 319 318 320 320 323 324 328 329 335 342 338 345 347 347 347 347 350 352 357 359 356 354 355 356 356 356 359 360 359 359 359 359 360 363 364 365 366
309 312 307 309 309 310 309 309 308 308 309 308 306 308 309 311 306 304 311 315 312 313 314 315 317 319 320 318 320 322 325 323 326 330 327 326 331 341 341 349 353 351 350 354 355 356 355 354 355 355 355 357 360 360 360 361 358 359 362 362 363 363 366
309 309 308 310 307 308 308 309 309 310 309 309 308 308 310 310 311 311 314 315 311 314 315 316 318 320 319 320 322 323 323 320 325 324 324 322 326 326 333 342 349 354 353 356 358 359 360 356 356 353 354 358 357 357 358 358 360 359 362 363 365 364 365
306 308 308 308 308 307 307 309 309 309 309 310 310 309 310 311 310 311 311 314 313 316 319 319 321 322 320 321 319 319 322 322 321 322 321 323 324 328 332 346 346 350 354 358 360 360 361 360 357 356 357 357 356 355 357 357 359 359 359 367 367 366 367
301 305 305 306 307 306 306 307 308 308 308 307 308 308 310 309 308 310 310 309 310 317 320 320 321 321 321 320 320 320 321 321 322 322 321 323 325 326 326 337 343 353 351 354 360 360 359 359 359 357 360 356 356 354 357 357 356 357 357 359 362 367 366
300 304 306 305 305 305 302 303 307 309 309 310 310 311 312 312 312 309 307 309 315 318 320 318 319 318 319 320 320 322 323 325 322 323 323 323 324 326 330 330 330 327 331 347 355 351 352 356 357 356 357 355 357 358 360 361 361 358 359 358 363 366 367
299 304 304 305 301 295 297 310 312 311 309 309 308 308 310 312 313 312 314 315 318 318 318 317 318 318 320 322 324 324 325 324 324 322 324 323 324 325 326 328 328 333 336 343 342 351 357 353 349 358 360 354 356 359 360 364 363 364 364 362 366 365 367
299 302 301 298 293 295 309 311 313 313 312 311 310 310 311 312 313 313 312 314 316 318 318 319 320 322 322 322 323 322 322 325 324 324 324 327 330 330 330 330 328 335 342 351 355 351 346 345 350 353 356 356 357 358 361 361 364 367 364 364 364 365 366
301 300 298 291 294 306 308 310 312 315 313 312 311 308 311 312 313 314 312 314 315 317 318 318 321 322 321 321 323 323 323 323 323 322 324 325 325 326 328 332 357 361 356 358 354 357 359 354 349 350 351 356 354 357 360 359 361 364 366 365 364 366 366
295 298 298 297 306 303 306 307 309 312 309 310 308 304 308 313 314 314 314 315 316 316 317 318 319 320 319 318 319 321 321 322 324 325 326 326 327 327 333 341 350 365 365 360 357 360 360 357 350 350 350 353 356 355 357 357 363 363 363 363 362 364 366
299 297 296 297 297 295 301 309 315 318 318 315 315 311 308 315 315 316 316 316 318 318 319 320 321 325 321 317 319 323 324 324 324 326 325 326 328 329 340 352 354 358 359 363 364 362 362 363 364 362 356 355 360 362 360 361 360 361 359 359 361 365 367
297 296 294 294 294 298 308 309 313 317 319 318 318 311 306 319 319 321 320 318 321 321 320 323 330 324 315 314 319 326 334 338 344 351 334 329 343 353 354 353 351 354 364 364 362 360 362 364 366 365 362 359 357 358 359 358 358 357 358 359 361 362 367
296 296 294 293 300 300 307 312 313 315 316 315 313 299 302 322 323 323 324 321 323 328 332 332 328 320 312 312 319 337 339 340 344 350 349 352 350 351 351 356 358 358 364 362 364 363 360 362 363 363 359 357 358 358 357 356 356 357 360 361 363 365 366
294 294 295 298 301 307 307 312 315 315 316 312 303 296 311 323 324 326 323 324 326 330 330 330 323 327 326 330 339 338 339 339 347 351 350 350 349 350 349 353 354 356 361 362 361 364 366 367 366 365 359 356 356 358 358 359 359 360 363 364 365 367 367
292 295 293 294 300 307 309 314 314 316 309 300 301 315 324 324 323 324 325 326 328 327 330 329 330 331 333 335 335 336 339 345 347 348 347 349 350 351 357 355 354 358 359 361 362 361 361 362 359 359 361 358 358 359 358 359 362 363 365 366 366 367 368
294 296 293 292 287 304 309 310 310 312 304 311 317 320 323 322 323 323 324 325 331 329 327 329 331 332 332 334 335 337 339 341 344 346 348 347 347 350 350 355 356 353 358 358 357 359 361 364 360 360 360 360 361 361 361 363 364 364 364 364 366 366 367
290 291 290 291 300 310 311 310 305 315 315 317 321 318 317 321 322 324 322 327 331 331 329 330 330 332 333 335 337 339 341 341 342 343 348 349 349 351 350 350 353 354 356 357 356 358 359 365 367 361 361 359 361 362 363 367 365 364 365 365 368 366 367
297 294 297 308 308 311 312 313 313 316 317 318 321 321 320 320 323 328 326 328 329 330 332 331 333 331 334 335 336 337 337 338 340 343 346 346 347 349 349 348 351 354 353 354 355 356 357 360 364 367 368 366 365 364 366 368 369 368 368 369 368 366 366
305 306 306 309 309 310 311 312 314 313 314 316 317 320 321 325 326 327 326 328 330 330 332 331 331 333 333 334 335 336 337 340 342 344 344 344 346 348 349 349 350 351 351 352 353 353 354 356 357 360 361 361 358 358 362 365 368 369 368 367 367 367 367
296 292 306 306 307 309 309 310 311 313 314 314 315 319 324 325 326 327 328 329 328 330 331 331 332 332 334 334 335 338 339 339 342 342 342 346 347 348 348 348 348 350 350 349 349 351 352 354 355 354 356 357 360 361 363 363 365 368 369 369 365 365 365
296 297 304 307 308 309 309 309 309 311 313 314 318 322 323 324 326 327 329 330 329 329 328 331 331 331 333 335 336 337 336 338 340 341 342 344 345 346 347 348 349 350 348 348 348 349 348 349 352 353 354 355 357 358 360 363 366 368 366 367 366 367 365
300 303 304 305 306 307 307 309 310 312 312 317 319 321 320 320 322 323 325 328 329 328 328 330 331 331 333 334 335 336 336 338 339 340 342 344 344 345 345 347 348 348 348 348 348 347 346 348 350 351 351 352 355 356 358 360 364 365 363 363 365 366 366
295 296 300 304 298 298 304 308 309 312 316 317 316 317 319 320 321 321 321 323 327 329 330 330 329 330 330 333 336 336 337 338 340 341 341 342 343 343 344 345 346 346 346 347 347 346 347 348 348 348 350 351 352 353 356 358 359 358 358 358 357 359 361
294 301 304 305 305 305 307 309 312 313 314 313 313 315 317 318 319 320 320 321 323 328 330 331 330 331 331 332 337 337 337 339 340 342 342 342 342 343 344 345 345 345 345 345 345 345 346 348 347 347 348 348 350 352 354 355 355 355 355 353 352 353 354
303 305 305 306 305 303 307 309 311 312 313 312 314 315 316 317 318 319 320 321 323 326 329 329 331 331 332 333 334 334 335 337 338 340 342 343 343 344 344 344 343 343 344 345 345 345 347 347 346 346 347 348 349 349 351 352 353 353 353 352 349 349 349
302 306 306 307 307 307 309 310 311 312 313 314 313 314 315 316 317 318 319 321 325 328 329 329 330 332 331 332 332 333 334 335 337 339 340 340 342 342 343 344 343 343 343 345 346 347 347 346 345 344 345 346 347 349 350 350 350 350 350 349 349 349 349
Wind_Speed
20 23 21 20 16 13 15 15 18 17 13 13 9 8 10 10 10 11 8 12 13 6 10 12 10 10 16 20 18 15 13 16 15 18 18 18 17 16 18 19 18 20 20 21 21 22 21 21 21 22 22 23 23 22 22 23 23 22 22 22 21 20 20
19 20 22 22 20 13 11 17 16 13 13 12 10 10 8 9 9 8 11 13 12 11 9 9 12 14 14 18 21 20 17 17 16 16 19 17 18 18 18 19 19 20 21 23 22 22 24 24 25 24 23 23 22 21 23 24 23 24 23 22 22 20 20
19 19 20 21 21 21 14 13 13 15 14 15 12 8 13 11 12 9 10 12 11 12 10 9 17 16 15 15 17 19 20 20 19 18 20 22 21 18 17 19 17 18 19 21 22 23 25 25 24 24 23 22 21 21 22 24 26 25 25 21 21 18 19
20 17 18 20 19 22 21 12 16 15 11 13 13 12 7 8 9 9 11 13 10 11 11 12 7 14 15 14 14 16 18 18 16 16 17 20 19 17 17 17 18 19 21 23 24 24 24 24 23 22 24 22 24 23 22 22 23 22 22 21 20 20 20
19 17 16 20 20 21 20 17 14 15 12 9 10 10 13 10 9 8 6 9 10 11 13 14 10 8 11 15 16 13 13 15 17 16 15 16 17 16 15 16 18 20 21 22 22 22 21 21 20 20 22 24 23 22 23 24 24 24 24 23 22 19 18
19 18 18 21 22 21 19 17 16 15 16 15 16 14 11 13 9 6 6 7 0 9 5 3 7 8 8 9 12 14 14 15 15 15 16 16 15 15 16 16 17 18 19 19 19 19 17 19 21 24 22 22 23 24 22 23 23 23 24 23 21 20 19
17 18 20 21 21 22 21 19 16 16 14 13 12 10 11 11 12 9 8 6 1 9 6 5 6 8 9 9 8 9 12 13 14 14 16 15 15 16 16 16 16 17 16 16 17 19 20 21 20 22 21 22 23 24 23 22 23 24 24 24 22 20 19
14 18 18 20 20 21 21 20 19 17 17 17 13 10 8 10 11 11 8 8 3 11 9 9 7 5 1 4 9 10 10 10 10 11 13 16 15 13 13 13 13 12 14 15 13 16 17 17 18 21 21 20 21 21 23 23 25 26 24 21 21 20 20
11 14 15 16 19 18 16 16 19 20 18 18 16 10 8 10 12 12 10 9 9 10 6 4 6 8 9 10 9 11 10 10 10 11 6 9 9 8 8 8 9 10 13 15 13 16 15 16 18 18 19 19 20 21 22 23 23 24 22 20 20 21 21
16 16 17 18 19 21 15 18 21 24 24 22 16 15 11 8 8 12 9 8 7 11 5 6 6 6 5 6 9 10 9 10 8 10 9 6 7 7 9 10 10 12 11 13 13 14 13 17 17 16 16 19 19 19 21 21 20 20 21 20 21 20 20
13 5 2 6 16 14 19 21 23 24 24 22 18 12 12 12 9 9 8 7 11 10 11 6 6 6 8 6 4 11 10 8 10 10 5 4 5 7 8 9 9 8 9 12 13 12 14 16 16 16 17 18 18 17 19 20 18 19 19 19 19 20 20
4 7 5 10 9 17 21 20 23 22 25 23 22 17 14 9 9 10 9 11 8 8 7 7 8 10 10 11 9 11 9 8 8 9 5 5 6 7 7 8 9 10 9 9 10 12 14 15 15 15 16 17 17 16 18 18 18 18 17 18 19 19 18
16 7 6 8 6 13 13 23 22 24 24 26 25 21 17 14 12 8 10 11 12 4 8 9 11 11 8 7 10 11 10 8 11 8 3 5 9 9 10 10 10 10 10 10 10 12 13 14 15 16 15 15 15 15 16 16 18 18 17 17 18 19 18
16 10 11 8 9 7 8 11 22 21 22 24 25 21 19 18 12 11 5 13 16 13 6 10 8 4 4 7 1 7 7 8 5 5 3 4 11 13 10 11 11 10 11 11 11 12 13 14 15 16 15 13 15 16 16 17 16 16 14 16 16 17 18
16 13 8 8 9 5 8 10 14 22 22 19 21 21 20 18 16 14 13 8 8 10 12 8 9 9 6 4 5 5 5 5 4 3 4 3 5 9 15 12 10 10 11 11 12 13 13 14 15 14 14 14 14 17 16 17 16 16 16 14 15 16 16
11 12 14 12 10 9 12 11 10 8 16 22 20 18 17 18 17 16 15 13 10 6 6 6 6 4 5 6 6 7 6 5 6 6 6 5 5 7 2 9 9 9 8 10 11 13 14 15 15 14 13 14 15 16 16 16 17 17 17 17 18 16 16
9 13 13 12 9 9 12 17 14 13 12 9 7 9 8 11 9 12 12 9 5 4 6 8 8 8 7 8 8 5 7 7 7 7 7 7 8 7 6 4 4 8 9 9 10 7 8 10 12 15 15 15 15 15 13 13 14 16 17 18 16 15 16
10 11 13 13 12 16 16 9 11 14 15 14 14 13 14 12 10 8 6 6 6 6 5 6 7 6 6 6 5 7 7 6 8 10 9 9 9 9 7 6 5 6 3 3 3 4 6 7 9 10 12 14 14 14 13 13 15 14 13 14 14 16 16
9 11 4 10 17 18 4 5 12 16 17 15 16 14 14 14 14 15 13 11 9 7 6 7 8 9 6 4 6 7 7 8 8 10 10 8 7 7 8 8 9 5 5 1 2 4 7 8 7 8 11 12 12 13 14 14 14 13 14 14 13 15 17
9 8 11 10 10 3 8 8 2 4 12 21 19 18 19 18 16 14 14 14 12 11 10 8 5 3 4 6 7 8 11 10 10 11 11 10 10 9 8 6 3 2 1 1 3 3 3 4 6 8 9 11 12 13 14 14 14 14 14 14 14 14 16
8 6 10 10 6 3 5 6 7 5 7 6 13 14 16 18 17 16 13 13 14 14 14 12 12 13 14 13 11 14 15 12 11 12 12 11 10 9 6 4 4 5 2 3 4 4 6 7 8 8 8 9 11 12 14 15 14 14 15 15 16 16 16
9 9 11 10 13 10 10 8 4 2 2 6 6 10 8 11 12 13 13 9 4 5 3 5 3 4 1 4 3 3 8 11 13 14 12 11 10 5 5 5 5 4 3 3 3 4 6 7 7 6 7 8 9 10 12 13 14 15 17 17 16 15 15
10 11 13 13 12 10 4 10 13 9 4 6 4 7 10 4 3 3 6 8 9 10 8 5 2 4 7 5 5 5 7 10 13 19 7 2 8 8 6 6 6 6 6 5 6 7 7 7 6 6 7 8 10 11 12 13 15 16 17 16 16 16 16
12 12 13 12 8 6 8 4 5 6 6 4 6 9 10 6 3 3 1 3 2 2 3 3 6 8 10 9 3 9 8 10 10 10 11 10 8 6 5 5 6 6 6 5 4 4 4 4 4 5 7 8 10 10 12 13 15 16 15 14 14 13 13
13 14 12 10 10 7 8 4 4 5 4 6 10 9 7 5 5 5 4 2 4 4 3 2 5 5 6 8 11 11 11 10 8 8 9 7 6 6 6 6 7 6 4 3 4 4 4 3 4 4 6 8 9 10 11 12 14 13 12 12 13 13 13
13 13 12 11 9 8 8 8 4 3 5 10 5 4 5 4 4 6 3 6 5 7 6 4 4 8 11 13 12 11 11 9 7 7 7 6 6 5 5 2 4 4 4 4 4 3 2 5 6 6 6 7 8 8 9 10 10 9 10 11 11 11 12
10 12 14 13 12 5 6 3 8 11 10 4 4 8 4 4 2 6 6 6 6 7 7 6 6 8 10 11 12 11 11 9 7 7 7 7 7 6 6 4 3 3 3 3 3 4 4 4 1 4 6 7 7 7 8 8 7 8 8 9 10 11 11
10 12 13 8 4 3 5 3 4 9 10 5 7 7 4 7 3 7 7 7 7 8 7 7 7 8 10 10 9 8 8 7 7 7 4 3 4 4 4 3 4 3 1 2 2 4 5 5 3 1 4 5 5 6 6 3 5 6 6 7 8 9 9
7 7 6 5 5 5 4 5 5 6 10 9 8 8 7 6 6 7 6 7 8 9 8 7 7 8 8 9 9 9 8 9 8 6 4 4 5 5 2 4 5 5 4 3 3 4 4 4 4 4 3 3 5 7 4 1 3 4 5 6 7 8 9
8 11 11 9 6 3 5 7 9 9 10 10 9 8 8 7 8 8 8 9 8 8 7 7 6 7 9 10 10 8 8 8 6 4 5 6 5 5 3 1 1 2 2 3 3 4 5 4 4 4 3 3 5 3 2 1 3 4 6 6 6 6 7
4 5 3 7 7 5 8 10 12 9 8 9 10 9 8 10 11 12 11 11 12 12 11 9 9 8 10 9 9 8 7 8 7 7 6 6 5 5 3 2 2 2 1 3 4 4 6 5 4 5 4 4 4 4 5 5 5 5 5 6 6 6 6
9 11 11 11 11 13 11 9 10 11 9 8 10 10 10 11 13 13 14 14 11 11 11 11 12 11 10 10 8 8 7 7 7 7 6 6 5 4 4 2 4 1 2 3 3 4 5 5 6 7 7 6 4 2 2 4 5 5 6 6 6 7 7
11 13 15 15 15 16 16 14 12 11 9 9 10 11 12 12 13 14 15 15 14 11 11 11 10 11 10 9 9 9 8 6 7 6 5 5 4 3 4 2 3 1 2 3 4 4 5 4 6 5 4 4 4 4 2 3 4 6 7 8 8 7 6
12 11 11 10 12 10 10 13 11 7 9 10 12 12 12 11 12 13 15 15 15 14 12 12 10 11 9 8 8 8 7 6 6 6 5 5 5 3 1 2 2 3 2 3 4 5 5 5 5 5 6 5 4 4 4 4 5 6 7 6 6 6 5
12 12 12 10 11 13 12 11 11 10 7 10 13 12 12 12 12 12 14 15 15 15 12 10 11 10 9 9 8 7 3 2 3 4 6 5 4 3 3 4 4 4 5 5 5 5 5 5 6 6 6 6 6 6 6 5 5 6 6 6 6 6 7
15 15 13 11 9 11 12 15 14 12 11 11 12 12 12 12 12 13 13 14 15 15 15 12 10 9 9 7 6 3 1 1 2 2 0 2 2 4 5 5 6 6 7 7 7 7 6 7 7 7 7 7 7 7 7 6 6 6 6 6 6 7 7
14 13 13 14 14 14 13 15 14 13 12 12 12 13 13 13 14 13 14 14 13 15 12 10 8 7 7 5 4 2 1 3 2 4 4 4 3 4 6 6 7 7 7 7 7 7 8 8 8 8 9 8 8 8 8 7 7 7 8 8 8 8 8
Wind_Direction
197 196 195 208 203 201 182 197 207 212 207 228 238 249 239 244 243 236 201 205 217 239 226 207 212 231 209 207 205 207 196 202 199 168 180 196 216 201 189 193 191 190 186 187 190 189 189 188 189 191 187 186 185 182 181 182 182 182 183 184 186 188 190
198 192 197 205 206 219 174 205 205 206 222 237 237 237 210 225 235 227 219 213 203 209 227 190 197 209 217 203 207 207 194 192 196 185 180 187 210 207 192 190 189 187 187 187 190 191 189 189 191 192 189 188 185 184 182 180 181 183 184 184 187 187 188
185 184 193 207 212 215 220 204 185 204 187 210 212 240 232 214 216 233 224 227 228 205 216 212 208 203 209 205 198 204 203 205 206 203 188 186 198 204 193 192 186 187 189 189 191 193 193 191 188 189 189 187 187 187 186 183 183 184 184 185 187 187 187
176 186 190 204 198 200 227 215 201 208 224 210 203 210 241 238 235 215 223 223 235 215 228 215 202 195 198 202 195 205 201 194 196 195 192 187 193 200 196 191 187 189 191 192 191 193 193 192 190 189 187 188 190 189 186 188 187 184 184 185 185 187 189
175 198 195 206 193 189 196 216 208 189 222 207 226 203 217 218 233 235 238 214 215 220 208 208 198 170 198 198 198 204 216 197 188 191 190 184 192 198 199 193 189 191 193 193 192 192 193 190 188 190 189 190 191 190 190 190 187 187 186 187 187 189 189
197 205 196 206 200 196 196 203 208 198 194 200 202 213 197 223 230 232 239 252 48 79 66 103 203 188 171 203 200 193 204 216 208 191 191 188 190 196 200 198 194 194 191 193 190 187 191 191 190 192 193 190 190 192 191 191 190 190 189 189 189 188 191
210 208 194 204 210 199 201 202 209 205 197 209 207 214 194 208 226 241 247 261 179 77 86 152 185 192 186 179 200 201 185 201 206 202 191 187 192 198 204 205 196 193 189 189 187 185 190 194 192 192 193 193 194 193 190 190 192 193 192 190 188 186 188
208 202 200 193 211 204 200 205 212 207 209 203 215 212 201 208 196 213 208 229 175 117 106 87 73 37 279 187 190 209 195 193 189 194 197 184 184 196 202 202 200 189 179 182 183 184 190 195 193 193 195 196 195 194 193 191 194 194 193 190 188 187 187
193 188 192 191 198 214 208 202 203 212 212 210 213 216 213 220 205 207 206 205 231 128 147 154 195 198 201 207 178 189 190 183 180 175 175 127 132 155 186 194 191 177 174 175 182 188 187 191 196 194 196 198 198 196 195 196 196 193 192 190 189 188 189
189 186 190 192 188 202 206 207 201 206 211 209 200 211 200 228 199 214 208 206 105 104 132 138 213 179 222 171 161 161 184 165 160 134 107 112 152 172 192 193 188 187 177 174 183 188 185 190 196 196 195 198 200 199 201 200 195 192 192 192 191 189 190
204 206 261 221 196 191 210 201 207 197 211 211 209 211 218 211 204 224 216 248 129 170 137 170 159 179 174 141 138 144 154 157 80 74 97 146 164 176 184 186 184 183 182 184 184 188 190 194 197 198 199 199 202 200 201 202 198 195 192 192 191 191 191
275 335 314 338 271 209 206 210 203 205 201 211 207 209 213 197 211 220 191 226 252 130 145 166 181 153 159 158 150 120 113 116 125 109 131 156 168 165 158 167 170 181 185 187 182 187 193 196 199 200 200 201 201 201 201 201 202 198 194 194 192 191 191
238 258 336 315 271 222 219 212 209 205 202 202 212 210 212 201 217 220 180 197 222 210 134 164 156 147 133 116 136 135 122 141 138 134 86 161 151 151 159 162 167 176 178 183 186 187 196 201 201 202 203 203 202 202 202 200 203 202 194 193 194 193 192
238 221 245 276 265 250 272 269 215 207 206 202 208 213 209 211 212 223 196 183 212 220 192 155 135 146 157 148 164 59 139 176 61 42 208 197 171 156 160 164 167 174 177 177 187 186 191 199 199 201 203 205 204 203 202 201 204 203 192 192 194 195 194
236 230 225 230 254 279 270 240 231 206 204 210 205 210 209 212 216 210 215 178 199 203 227 217 158 171 198 251 248 232 253 315 335 277 274 268 273 173 162 165 168 164 173 176 181 188 193 198 198 201 202 201 202 205 202 203 201 203 198 190 192 196 197
241 222 218 218 237 250 237 235 226 243 222 208 201 207 205 206 210 213 211 214 207 185 205 246 269 267 279 275 268 259 263 264 256 270 275 277 248 270 277 167 157 155 178 180 182 189 195 197 199 201 201 200 201 206 200 201 200 200 203 197 194 195 196
238 214 217 216 223 240 238 230 219 216 222 246 217 217 213 225 228 214 220 219 211 205 183 220 221 240 241 245 248 271 271 274 280 278 282 278 271 264 261 287 281 240 229 191 185 202 199 198 199 201 199 201 203 204 202 195 197 201 202 201 191 192 194
219 208 201 212 218 226 223 210 223 229 227 212 220 206 207 210 215 230 222 227 200 204 226 231 249 230 222 245 269 277 293 302 289 282 278 272 266 258 260 282 299 317 350 312 266 201 206 215 217 204 202 205 204 199 200 192 197 201 199 201 192 190 192
215 149 131 199 218 227 210 230 223 226 234 240 236 238 232 225 221 231 233 233 244 245 244 229 226 239 246 225 258 268 264 263 270 269 265 268 283 287 284 268 268 294 314 354 234 239 238 239 224 213 206 207 200 198 197 199 195 196 197 199 195 190 193
300 231 177 208 223 297 226 192 229 305 235 219 226 237 237 237 240 236 239 238 236 233 233 240 252 280 279 278 262 267 274 277 282 281 278 273 279 281 283 306 53 64 330 303 302 309 312 252 230 221 217 206 202 198 195 200 197 196 195 197 197 190 194
251 241 205 206 110 124 201 170 185 181 217 211 219 230 222 226 230 233 239 235 234 230 229 231 237 237 242 246 250 249 252 258 260 263 261 267 270 270 293 334 356 40 27 306 288 276 256 256 254 243 229 212 206 199 195 199 197 195 196 197 198 194 194
228 231 212 217 223 228 191 202 137 158 170 230 225 238 242 213 223 229 232 244 256 265 272 271 288 10 306 245 266 273 259 249 254 248 249 256 253 286 351 4 342 322 320 310 274 264 265 254 251 255 246 223 203 201 197 195 196 197 199 200 197 194 195
216 224 231 218 224 221 261 188 178 193 161 183 136 184 220 89 223 120 242 225 227 244 268 266 342 249 244 254 278 344 353 7 15 2 324 121 48 45 26 350 331 337 347 335 307 287 273 263 246 230 238 231 209 204 199 196 198 200 203 201 196 196 195
224 219 218 225 214 197 176 163 130 155 196 94 208 201 196 115 88 54 172 259 287 338 28 298 259 250 257 253 270 15 355 358 12 0 7 18 19 14 6 18 5 338 323 302 287 272 258 252 246 219 217 219 213 204 199 197 201 204 204 202 199 198 196
226 231 228 229 223 251 6 114 148 123 216 188 210 206 110 113 84 63 39 42 45 39 18 339 262 238 268 310 342 330 339 332 3 1 10 7 4 353 340 8 342 306 306 336 335 328 335 317 286 246 212 211 210 204 199 201 205 205 200 199 197 196 194
217 215 228 229 236 210 200 140 183 127 175 198 184 18 291 12 85 42 32 15 29 27 22 357 326 317 313 308 311 318 323 347 340 342 340 347 346 6 26 347 307 314 332 354 330 325 259 235 222 222 211 208 206 193 197 203 205 206 200 196 195 196 194
226 224 219 218 222 173 237 288 189 177 234 56 320 321 323 237 43 10 23 355 28 358 1 355 338 312 312 314 315 317 310 302 319 338 351 334 328 330 321 325 12 326 353 345 358 342 349 356 192 204 197 197 195 189 195 200 202 204 200 189 186 190 191
216 212 221 219 240 47 23 269 233 38 28 355 346 328 316 342 355 20 332 356 7 352 344 345 330 320 308 302 307 308 307 305 300 298 317 329 295 291 295 357 3 360 40 349 18 20 14 6 358 183 183 177 180 177 165 144 192 181 182 177 178 182 183
249 247 226 31 346 348 323 359 23 343 357 349 354 330 334 319 347 354 325 343 340 341 346 332 327 312 315 314 313 309 310 308 298 293 303 330 329 310 325 355 1 350 38 41 31 61 48 35 31 31 87 134 140 144 105 81 101 128 152 165 171 181 178
275 272 272 267 278 314 292 336 349 337 334 336 344 346 336 345 331 334 332 338 339 332 339 332 326 328 323 314 306 303 304 302 310 310 309 299 280 278 285 271 338 353 63 56 70 93 96 80 81 73 85 112 143 130 158 184 171 151 170 165 166 174 172
305 278 298 257 265 316 345 311 315 306 309 327 336 341 346 335 331 333 334 335 335 327 333 327 328 323 321 317 313 307 297 296 300 304 297 289 287 318 315 342 281 269 54 92 76 74 72 65 73 93 102 108 117 154 163 178 173 176 159 155 153 161 158
260 264 275 285 310 307 300 302 291 301 305 320 345 349 342 339 336 332 332 324 318 335 325 338 329 324 317 311 311 303 299 289 288 285 280 276 272 269 304 313 276 268 144 106 109 89 78 85 64 50 42 40 40 43 124 136 137 149 145 149 148 143 147
248 246 254 267 282 287 285 283 282 274 308 345 332 331 329 325 330 334 331 330 319 314 324 328 322 313 318 320 313 299 291 279 268 268 272 279 276 280 258 284 298 107 106 96 92 99 95 75 71 83 98 108 92 75 59 80 115 95 82 83 97 91 82
244 245 244 234 247 255 253 247 257 324 352 330 325 323 319 325 325 326 321 321 319 308 313 315 310 304 307 306 295 292 287 285 274 259 259 251 251 241 266 231 230 107 85 101 95 93 103 95 98 101 95 87 80 89 94 89 98 111 113 99 107 113 95
242 238 242 252 266 271 273 295 296 282 310 327 311 308 313 314 313 312 311 311 313 304 296 307 306 303 303 307 307 290 278 346 339 292 253 236 215 203 185 179 151 136 125 124 119 112 96 95 94 88 86 81 79 80 83 88 95 97 109 113 114 112 115
267 272 272 267 272 273 281 286 293 301 301 297 300 298 298 300 302 304 303 305 303 298 292 289 290 291 283 276 273 284 306 324 303 10 251 182 167 154 166 152 140 139 137 125 115 106 105 97 92 89 85 77 75 79 81 88 98 104 105 105 102 102 112
254 260 272 276 281 279 271 274 277 281 286 288 288 292 294 297 298 297 296 298 298 293 282 281 282 281 272 264 259 246 161 163 165 85 78 90 96 127 130 134 133 127 116 110 103 98 95 92 88 85 81 81 79 74 74 78 87 94 99 102 100 97 97